COSMOS 1275 DEB, 12665

Orbit data source: Space-Track

COSMOS 1275 DEB, 12665 is space debris in LEO originally from a launch on Thu, 04 Jun 1981 UTC launched from the Plesetsk Missile And Space Complex (PKMTR). Debris objects in space refer to the collection of defunct objects orbiting the Earth. Examples of debris include non-operational satellites, rocket bodies, and fragments generated from explosions, collisions, or faulty payload assembly.

Loading next visibility...
Identifier
12665, 1981-053V
Orbit
LEO
Country
Flag of CISCIS
Related business
Manufacturer
Unknown
Mission
Spacecraft
Bus & Motor
Unknown
Mass
Unknown
Launch date (UTC)
1981-06-04 (45 years ago)
Launch vehicle
Unknown
Launch site
Plesetsk Missile And Space Complex (PKMTR)
Object type
Payload
Rocket body
Debris
Shape & HBR
Unknown shape, 0.1 m
Radar Cross Section
Medium (>0.1 m² and <1 m²)

Expand to show TLE details & history
Last TLE update: 7 hours ago

TLE from 7 hours ago
0 COSMOS 1275 DEB
1 12665U 81053V   26254.67115681  .00000241  00000-0  20316-3 0  9993
2 12665  82.9645 112.5457 0033632 260.2813 167.6547 13.83762914271280
Epoch: 2026-09-11T16:06Z
TLE epoch observation values (Epoch: 2026-09-11T16:06:27.948Z)
Latitude
67.05406°
Longitude
-102.90419°
Altitude
986.26 km
Speed
7.353 km/s
True Right ascension
08h 37m 36s
True Declination
66° 56' 03"
Sunlit
Object was in daylight at epoch
Visualization orbit readout
Latitude
Unknown
Longitude
Unknown
Altitude
Unknown
Speed
Unknown
Apparent Right ascension
Unknown
Apparent Declination
Unknown
Sunlit
N/A
Visualization observer readout
Local Sidereal Time
15:27:23
Azimuth
Unknown
Elevation
Unknown
Doppler factor
Unknown
Orbital elements
Apogee altitude
972.344 km
Perigee altitude
923.068 km
Semi-major axis
7,325.843 km
Eccentricity
0.00336
Inclination
82.9645°
RAAN
112.5457°
Arg. of periapsis
260.2813°
True anomaly
167.73676°
Mean anomaly
167.6547°
Eccentric anomaly
167.69576°
Mean motion
3.46144 °/min
Orbital period
104 mins
BSTAR
0.00020316
Loading maneuver chart data...
Computing Atmospheric mass density...
Loading historical data...
Loading historical data...
Loading historical data...
Loading historical data...
Loading historical data...
Loading historical data...
Loading historical data...

Documentation

Showing up to 5 results
|